Simultaneous Nadir Overpasses (SNOs) Predictions

Prediction of SNOs between AQUA and NPP Satellite Orbit:

Table of predicted SNOs for the next 14.0 days since TLE Epoch: 5/25/2014
Index Date (AQUA) Time (AQUA) Lat,Lon (AQUA) SZA (AQUA ) Date (NPP) Time (NPP) Lat,Lon (NPP) SZA (NPP ) Distance(km) Time Diff (sec)
1 05/27/2014 02:19:28 -61.37,-175.66 88.50 05/27/2014 02:18:42 -61.37,-175.64 88.46 1.32 46
2 05/27/2014 03:07:36 65.75, -4.36 87.12 05/27/2014 03:08:06 65.75, -4.39 87.10 1.62 30
3 05/29/2014 18:35:19 -63.30, -58.29 90.80 05/29/2014 18:35:06 -63.30, -58.28 90.79 0.73 13
4 05/29/2014 19:23:31 67.42, 113.27 85.04 05/29/2014 19:24:34 67.42, 113.25 84.98 0.71 63
5 06/01/2014 10:03:15 59.80,-112.58 92.34 06/01/2014 10:02:20 59.81,-112.55 92.39 1.70 55
6 06/01/2014
